Time,TemperatureF,DewpointF,PressureIn,WindDirection,WindDirectionDegrees,WindSpeedMPH,WindSpeedGustMPH,Humidity,HourlyPrecipIn,Conditions,Clouds,dailyrainin,SoftwareType,DateUTC
2013-10-13 00:01:00,72.1,67.7,29.98,ENE,69,0.0,0.0,86,0.00,,OVC,0.00,WeatherDisplay:10.37,2013-10-13 04:01:00,
2013-10-13 00:02:00,72.0,67.6,29.98,ENE,69,0.0,0.0,86,0.00,,OVC,0.00,WeatherDisplay:10.37,2013-10-13 04:02:00,
2013-10-13 00:07:00,72.0,67.6,29.98,ENE,69,0.0,0.0,86,0.00,,OVC,0.00,WeatherDisplay:10.37,2013-10-13 04:07:00,
2013-10-13 00:12:00,71.8,67.7,29.98,ENE,69,0.0,0.0,87,0.00,,OVC,0.00,WeatherDisplay:10.37,2013-10-13 04:12:00,
2013-10-13 00:17:00,71.8,67.7,29.98,ENE,69,0.0,0.0,87,0.00,,OVC,0.00,WeatherDisplay:10.37,2013-10-13 04:17:00,
2013-10-13 00:22:00,71.6,67.5,29.98,ENE,69,0.0,0.0,87,0.00,,OVC,0.00,WeatherDisplay:10.37,2013-10-13 04:22:00,
2013-10-13 00:27:00,71.5,67.4,29.98,ENE,69,0.0,0.0,87,0.00,,OVC,0.00,WeatherDisplay:10.37,2013-10-13 04:27:00,
2013-10-13 00:32:00,71.6,67.9,29.98,ENE,69,0.0,0.0,88,0.00,,OVC,0.00,WeatherDisplay:10.37,2013-10-13 04:32:00,
2013-10-13 00:37:00,71.5,67.8,29.98,ENE,69,0.0,0.0,88,0.00,,OVC,0.00,WeatherDisplay:10.37,2013-10-13 04:37:00,
2013-10-13 00:42:00,71.5,67.8,29.98,ENE,69,0.0,0.0,88,0.00,,OVC,0.00,WeatherDisplay:10.37,2013-10-13 04:42:00,
2013-10-13 00:47:00,71.5,67.8,29.97,ENE,69,0.0,0.0,88,0.00,,OVC,0.00,WeatherDisplay:10.37,2013-10-13 04:47:00,
2013-10-13 00:52:00,71.5,67.8,29.97,ENE,69,0.0,0.0,88,0.00,,OVC,0.00,WeatherDisplay:10.37,2013-10-13 04:52:00,
2013-10-13 00:57:00,71.3,67.6,29.97,ENE,69,0.0,0.0,88,0.00,,OVC,0.00,WeatherDisplay:10.37,2013-10-13 04:57:00,
2013-10-13 01:02:00,71.3,67.6,29.97,ENE,69,0.0,0.0,88,0.00,,OVC,0.00,WeatherDisplay:10.37,2013-10-13 05:02:00,
2013-10-13 01:07:00,71.1,67.4,29.97,ENE,69,0.0,0.0,88,0.00,,OVC,0.00,WeatherDisplay:10.37,2013-10-13 05:07:00,
2013-10-13 01:12:00,71.1,67.7,29.97,ENE,69,0.0,0.0,89,0.00,,OVC,0.00,WeatherDisplay:10.37,2013-10-13 05:12:00,
2013-10-13 01:17:00,71.1,67.7,29.96,ENE,69,0.0,0.0,89,0.00,,OVC,0.00,WeatherDisplay:10.37,2013-10-13 05:17:00,
2013-10-13 01:22:00,70.9,67.5,29.96,ENE,69,0.0,0.0,89,0.00,,OVC,0.00,WeatherDisplay:10.37,2013-10-13 05:22:00,
2013-10-13 01:27:00,70.9,67.5,29.96,ENE,69,0.0,0.0,89,0.00,,OVC,0.00,WeatherDisplay:10.37,2013-10-13 05:27:00,
2013-10-13 01:32:00,70.9,67.5,29.97,ENE,69,0.0,0.0,89,0.00,,OVC,0.00,WeatherDisplay:10.37,2013-10-13 05:32:00,
2013-10-13 01:37:00,70.8,67.4,29.97,ENE,69,0.0,0.0,89,0.00,,OVC,0.00,WeatherDisplay:10.37,2013-10-13 05:37:00,
2013-10-13 01:42:00,70.6,67.2,29.97,ENE,69,0.0,0.0,89,0.00,,OVC,0.00,WeatherDisplay:10.37,2013-10-13 05:42:00,
2013-10-13 01:47:00,70.6,67.5,29.96,ENE,69,0.0,0.0,90,0.00,,OVC,0.00,WeatherDisplay:10.37,2013-10-13 05:47:00,
2013-10-13 01:52:00,70.6,67.5,29.96,ENE,69,0.0,0.0,90,0.00,,OVC,0.00,WeatherDisplay:10.37,2013-10-13 05:52:00,
2013-10-13 01:57:00,70.4,67.3,29.96,ENE,69,0.0,0.0,90,0.00,,OVC,0.00,WeatherDisplay:10.37,2013-10-13 05:57:00,
2013-10-13 02:02:00,70.6,67.8,29.96,ENE,69,0.0,0.0,91,0.00,,OVC,0.00,WeatherDisplay:10.37,2013-10-13 06:02:00,
2013-10-13 02:07:00,70.6,67.8,29.96,ENE,69,0.0,0.0,91,0.00,,OVC,0.00,WeatherDisplay:10.37,2013-10-13 06:07:00,
2013-10-13 02:12:00,70.6,67.8,29.96,ENE,69,0.0,0.0,91,0.00,,OVC,0.00,WeatherDisplay:10.37,2013-10-13 06:12:00,
2013-10-13 02:17:00,70.6,67.8,29.96,ENE,69,0.0,0.0,91,0.00,,OVC,0.00,WeatherDisplay:10.37,2013-10-13 06:17:00,
2013-10-13 02:22:00,70.6,67.8,29.96,ENE,69,0.0,0.0,91,0.00,,OVC,0.00,WeatherDisplay:10.37,2013-10-13 06:22:00,
2013-10-13 02:27:00,70.8,68.4,29.96,ENE,69,0.0,0.0,92,0.00,,OVC,0.00,WeatherDisplay:10.37,2013-10-13 06:27:00,
2013-10-13 02:32:00,70.9,68.5,29.95,ENE,69,0.0,0.0,92,0.00,,OVC,0.00,WeatherDisplay:10.37,2013-10-13 06:32:00,
2013-10-13 02:37:00,70.9,68.5,29.95,ENE,69,0.0,0.0,92,0.00,,OVC,0.00,WeatherDisplay:10.37,2013-10-13 06:37:00,
2013-10-13 02:42:00,70.9,68.5,29.95,ENE,69,0.0,0.0,92,0.00,,OVC,0.00,WeatherDisplay:10.37,2013-10-13 06:42:00,
2013-10-13 02:47:00,70.9,68.5,29.95,ENE,69,0.0,0.0,92,0.00,,OVC,0.00,WeatherDisplay:10.37,2013-10-13 06:47:00,
2013-10-13 02:52:00,70.9,68.5,29.95,ENE,69,0.0,0.0,92,0.00,,OVC,0.00,WeatherDisplay:10.37,2013-10-13 06:52:00,
2013-10-13 02:57:00,70.9,68.5,29.95,ENE,69,0.0,0.0,92,0.00,,OVC,0.00,WeatherDisplay:10.37,2013-10-13 06:57:00,
2013-10-13 03:02:00,70.8,68.4,29.94,ENE,69,0.0,0.0,92,0.00,,OVC,0.00,WeatherDisplay:10.37,2013-10-13 07:02:00,
2013-10-13 03:07:00,70.8,68.4,29.94,ENE,69,0.0,0.0,92,0.00,,OVC,0.00,WeatherDisplay:10.37,2013-10-13 07:07:00,
2013-10-13 03:12:00,70.8,68.4,29.94,ENE,69,0.0,0.0,92,0.00,,OVC,0.00,WeatherDisplay:10.37,2013-10-13 07:12:00,
2013-10-13 03:17:00,70.8,68.4,29.93,ENE,69,0.0,0.0,92,0.00,,OVC,0.00,WeatherDisplay:10.37,2013-10-13 07:17:00,
2013-10-13 03:22:00,70.6,68.2,29.93,ENE,69,0.0,0.0,92,0.00,,OVC,0.00,WeatherDisplay:10.37,2013-10-13 07:22:00,
2013-10-13 03:27:00,70.6,68.2,29.93,ENE,69,0.0,0.0,92,0.00,,OVC,0.00,WeatherDisplay:10.37,2013-10-13 07:27:00,
2013-10-13 03:32:00,70.6,68.2,29.93,ENE,69,0.0,0.0,92,0.00,,OVC,0.00,WeatherDisplay:10.37,2013-10-13 07:32:00,
2013-10-13 03:37:00,70.6,68.2,29.93,ENE,69,0.0,0.0,92,0.00,,OVC,0.00,WeatherDisplay:10.37,2013-10-13 07:37:00,
2013-10-13 03:42:00,70.6,68.5,29.93,ENE,69,0.0,0.0,93,0.00,,OVC,0.00,WeatherDisplay:10.37,2013-10-13 07:42:00,
2013-10-13 03:47:00,70.4,68.3,29.93,ENE,69,0.0,0.0,93,0.00,,OVC,0.00,WeatherDisplay:10.37,2013-10-13 07:47:00,
2013-10-13 03:52:00,70.4,68.3,29.93,NE,43,0.0,0.0,93,0.00,,OVC,0.00,WeatherDisplay:10.37,2013-10-13 07:52:00,
2013-10-13 03:57:00,70.4,68.3,29.93,North,360,0.0,0.0,93,0.00,,OVC,0.00,WeatherDisplay:10.37,2013-10-13 07:57:00,
2013-10-13 04:02:00,70.4,68.3,29.93,North,360,0.0,0.0,93,0.00,,OVC,0.00,WeatherDisplay:10.37,2013-10-13 08:02:00,
2013-10-13 04:07:00,70.6,68.5,29.93,North,360,0.0,0.0,93,0.00,,OVC,0.00,WeatherDisplay:10.37,2013-10-13 08:07:00,
2013-10-13 04:12:00,70.8,68.7,29.93,North,355,0.0,0.0,93,0.00,,OVC,0.00,WeatherDisplay:10.37,2013-10-13 08:12:00,
2013-10-13 04:17:00,70.8,68.7,29.94,North,355,0.0,0.0,93,0.00,,OVC,0.00,WeatherDisplay:10.37,2013-10-13 08:17:00,
2013-10-13 04:22:00,70.9,68.8,29.94,North,355,0.0,0.0,93,0.00,,OVC,0.00,WeatherDisplay:10.37,2013-10-13 08:22:00,
2013-10-13 04:27:00,70.8,68.7,29.94,North,355,0.0,0.0,93,0.00,,OVC,0.00,WeatherDisplay:10.37,2013-10-13 08:27:00,
2013-10-13 04:32:00,70.8,68.7,29.94,North,355,0.0,0.0,93,0.00,,OVC,0.00,WeatherDisplay:10.37,2013-10-13 08:32:00,
2013-10-13 04:37:00,70.9,69.1,29.94,North,355,0.0,0.0,94,0.00,,OVC,0.00,WeatherDisplay:10.37,2013-10-13 08:37:00,
2013-10-13 04:42:00,71.1,69.3,29.94,NNW,332,0.0,0.0,94,0.00,,OVC,0.00,WeatherDisplay:10.37,2013-10-13 08:42:00,
2013-10-13 04:47:00,71.3,69.5,29.94,NNW,328,0.0,0.0,94,0.00,,OVC,0.00,WeatherDisplay:10.37,2013-10-13 08:47:00,
2013-10-13 04:53:00,71.5,69.7,29.94,NNW,327,0.0,0.0,94,0.00,,OVC,0.00,WeatherDisplay:10.37,2013-10-13 08:53:00,
2013-10-13 04:58:00,71.5,69.7,29.94,NW,317,0.0,0.0,94,0.00,,OVC,0.00,WeatherDisplay:10.37,2013-10-13 08:58:00,
2013-10-13 05:03:00,71.6,69.8,29.94,NW,316,0.0,0.0,94,0.00,,OVC,0.00,WeatherDisplay:10.37,2013-10-13 09:03:00,
2013-10-13 05:08:00,71.6,69.8,29.94,NW,317,0.0,0.0,94,0.00,,OVC,0.00,WeatherDisplay:10.37,2013-10-13 09:08:00,
2013-10-13 05:13:00,71.8,70.0,29.94,NW,317,0.0,0.0,94,0.00,,OVC,0.00,WeatherDisplay:10.37,2013-10-13 09:13:00,
2013-10-13 05:18:00,72.0,70.2,29.95,NW,317,0.0,0.0,94,0.00,,OVC,0.00,WeatherDisplay:10.37,2013-10-13 09:18:00,
2013-10-13 05:23:00,72.0,70.2,29.95,NW,317,0.0,0.0,94,0.00,,OVC,0.00,WeatherDisplay:10.37,2013-10-13 09:23:00,
2013-10-13 05:28:00,72.1,70.3,29.95,NW,317,0.0,0.0,94,0.00,,OVC,0.00,WeatherDisplay:10.37,2013-10-13 09:28:00,
2013-10-13 05:33:00,72.1,70.3,29.95,NW,317,0.0,0.0,94,0.00,,OVC,0.00,WeatherDisplay:10.37,2013-10-13 09:33:00,
2013-10-13 05:38:00,72.1,70.3,29.95,NW,317,0.0,0.0,94,0.00,,OVC,0.00,WeatherDisplay:10.37,2013-10-13 09:38:00,
2013-10-13 05:43:00,72.1,70.3,29.95,NW,317,0.0,0.0,94,0.00,,OVC,0.00,WeatherDisplay:10.37,2013-10-13 09:43:00,
2013-10-13 05:48:00,72.1,70.3,29.95,NW,317,0.0,0.0,94,0.00,,OVC,0.00,WeatherDisplay:10.37,2013-10-13 09:48:00,
2013-10-13 05:53:00,72.0,70.2,29.95,NW,317,0.0,0.0,94,0.00,,OVC,0.00,WeatherDisplay:10.37,2013-10-13 09:53:00,
2013-10-13 05:58:00,72.1,70.3,29.95,NW,317,0.0,0.0,94,0.00,,OVC,0.00,WeatherDisplay:10.37,2013-10-13 09:58:00,
2013-10-13 06:03:00,72.0,70.2,29.95,NW,317,0.0,0.0,94,0.00,,OVC,0.00,WeatherDisplay:10.37,2013-10-13 10:03:00,
2013-10-13 06:08:00,72.0,70.2,29.95,NW,317,0.0,0.0,94,0.00,,OVC,0.00,WeatherDisplay:10.37,2013-10-13 10:08:00,
2013-10-13 06:13:00,72.0,70.2,29.95,NW,317,0.0,0.0,94,0.00,,OVC,0.00,WeatherDisplay:10.37,2013-10-13 10:13:00,
2013-10-13 06:18:00,72.0,70.2,29.95,NW,317,0.0,0.0,94,0.00,,OVC,0.00,WeatherDisplay:10.37,2013-10-13 10:18:00,
2013-10-13 06:23:00,72.0,70.2,29.95,NW,317,0.0,0.0,94,0.00,,OVC,0.00,WeatherDisplay:10.37,2013-10-13 10:23:00,
2013-10-13 06:28:00,71.8,69.7,29.95,NW,317,0.0,0.0,93,0.00,,OVC,0.00,WeatherDisplay:10.37,2013-10-13 10:28:00,
2013-10-13 06:33:00,71.6,69.5,29.96,NW,317,0.0,0.0,93,0.00,,OVC,0.00,WeatherDisplay:10.37,2013-10-13 10:33:00,
2013-10-13 06:38:00,71.6,69.8,29.96,NW,317,0.0,0.0,94,0.00,,OVC,0.00,WeatherDisplay:10.37,2013-10-13 10:38:00,
2013-10-13 06:43:00,71.6,69.8,29.96,NW,317,0.0,0.0,94,0.00,,OVC,0.00,WeatherDisplay:10.37,2013-10-13 10:43:00,
2013-10-13 06:48:00,71.6,69.8,29.96,NW,317,0.0,0.0,94,0.00,,OVC,0.00,WeatherDisplay:10.37,2013-10-13 10:48:00,
2013-10-13 06:53:00,71.6,69.8,29.96,NW,317,0.0,0.0,94,0.00,,OVC,0.00,WeatherDisplay:10.37,2013-10-13 10:53:00,
2013-10-13 06:58:00,71.6,69.8,29.96,NW,317,0.0,0.0,94,0.00,,OVC,0.00,WeatherDisplay:10.37,2013-10-13 10:58:00,
2013-10-13 07:03:00,71.6,69.8,29.96,NW,317,0.0,0.0,94,0.00,,OVC,0.00,WeatherDisplay:10.37,2013-10-13 11:03:00,
2013-10-13 07:08:00,71.6,69.8,29.96,NW,317,0.0,0.0,94,0.00,,OVC,0.00,WeatherDisplay:10.37,2013-10-13 11:08:00,
2013-10-13 07:13:00,71.6,69.8,29.96,NW,317,0.0,0.0,94,0.00,,OVC,0.00,WeatherDisplay:10.37,2013-10-13 11:13:00,
2013-10-13 07:18:00,71.5,69.7,29.96,NW,317,0.0,0.0,94,0.00,,OVC,0.00,WeatherDisplay:10.37,2013-10-13 11:18:00,
2013-10-13 07:23:00,71.5,69.7,29.96,NW,317,0.0,0.0,94,0.00,,OVC,0.00,WeatherDisplay:10.37,2013-10-13 11:23:00,
2013-10-13 07:28:00,71.5,69.7,29.96,NW,317,0.0,0.0,94,0.00,,OVC,0.00,WeatherDisplay:10.37,2013-10-13 11:28:00,
2013-10-13 07:33:00,71.5,69.7,29.97,NW,317,0.0,0.0,94,0.00,,OVC,0.00,WeatherDisplay:10.37,2013-10-13 11:33:00,
2013-10-13 07:38:00,71.5,69.7,29.97,NW,317,0.0,0.0,94,0.00,,OVC,0.00,WeatherDisplay:10.37,2013-10-13 11:38:00,
2013-10-13 07:43:00,71.3,69.5,29.97,NW,317,0.0,0.0,94,0.00,,OVC,0.00,WeatherDisplay:10.37,2013-10-13 11:43:00,
2013-10-13 07:48:00,71.3,69.5,29.97,NW,317,0.0,0.0,94,0.00,,OVC,0.00,WeatherDisplay:10.37,2013-10-13 11:48:00,
2013-10-13 07:53:00,71.3,69.5,29.97,NW,317,0.0,0.0,94,0.00,,OVC,0.00,WeatherDisplay:10.37,2013-10-13 11:53:00,
2013-10-13 07:58:00,71.5,69.7,29.97,NW,317,0.0,0.0,94,0.00,,OVC,0.00,WeatherDisplay:10.37,2013-10-13 11:58:00,
2013-10-13 08:03:00,71.3,69.5,29.98,NW,317,0.0,0.0,94,0.00,,OVC,0.00,WeatherDisplay:10.37,2013-10-13 12:03:00,
2013-10-13 08:08:00,71.5,69.7,29.98,NW,317,0.0,0.0,94,0.00,,OVC,0.00,WeatherDisplay:10.37,2013-10-13 12:08:00,
2013-10-13 08:13:00,71.6,70.1,29.98,NW,317,0.0,0.0,95,0.00,,OVC,0.00,WeatherDisplay:10.37,2013-10-13 12:13:00,
2013-10-13 08:18:00,71.8,70.3,29.98,NW,317,0.0,0.0,95,0.00,,OVC,0.00,WeatherDisplay:10.37,2013-10-13 12:18:00,
2013-10-13 08:23:00,72.0,70.5,29.98,NW,317,0.0,0.0,95,0.00,,OVC,0.00,WeatherDisplay:10.37,2013-10-13 12:23:00,
2013-10-13 08:28:00,72.1,70.6,29.98,NW,317,0.0,0.0,95,0.00,,OVC,0.00,WeatherDisplay:10.37,2013-10-13 12:28:00,
2013-10-13 08:33:00,72.3,70.5,29.98,NW,318,0.0,0.0,94,0.00,,OVC,0.00,WeatherDisplay:10.37,2013-10-13 12:33:00,
2013-10-13 08:38:00,72.7,70.9,29.98,NW,319,0.0,0.0,94,0.00,,OVC,0.00,WeatherDisplay:10.37,2013-10-13 12:38:00,
2013-10-13 08:43:00,72.8,70.7,29.99,NW,319,0.0,0.0,93,0.00,,OVC,0.00,WeatherDisplay:10.37,2013-10-13 12:43:00,
2013-10-13 08:48:00,73.3,70.8,29.99,NW,319,0.0,0.0,92,0.00,,OVC,0.00,WeatherDisplay:10.37,2013-10-13 12:48:00,
2013-10-13 08:53:00,73.7,70.6,29.99,NW,321,0.0,0.0,90,0.00,,OVC,0.00,WeatherDisplay:10.37,2013-10-13 12:53:00,
2013-10-13 08:58:00,74.4,70.6,29.99,NW,323,0.0,0.0,88,0.00,,OVC,0.00,WeatherDisplay:10.37,2013-10-13 12:58:00,
2013-10-13 09:03:00,75.3,70.5,29.99,NW,323,0.0,0.0,85,0.00,,OVC,0.00,WeatherDisplay:10.37,2013-10-13 13:03:00,
2013-10-13 09:08:00,76.0,69.7,29.99,NNW,328,0.0,0.0,81,0.00,,OVC,0.00,WeatherDisplay:10.37,2013-10-13 13:08:00,
2013-10-13 09:13:00,76.5,69.9,30.00,NNW,328,0.0,0.0,80,0.00,,OVC,0.00,WeatherDisplay:10.37,2013-10-13 13:13:00,
2013-10-13 09:18:00,76.8,69.4,30.00,NW,316,0.0,0.0,78,0.00,,OVC,0.00,WeatherDisplay:10.37,2013-10-13 13:18:00,
2013-10-13 09:23:00,77.4,70.0,30.00,NW,317,0.0,0.0,78,0.00,,OVC,0.00,WeatherDisplay:10.37,2013-10-13 13:23:00,
2013-10-13 09:28:00,77.7,69.5,30.01,NW,317,0.0,0.0,76,0.00,,OVC,0.00,WeatherDisplay:10.37,2013-10-13 13:28:00,
2013-10-13 09:33:00,78.1,69.5,30.01,NW,317,0.0,0.0,75,0.00,,OVC,0.00,WeatherDisplay:10.37,2013-10-13 13:33:00,
2013-10-13 09:38:00,78.5,69.1,30.01,NW,320,0.0,0.0,73,0.00,,OVC,0.00,WeatherDisplay:10.37,2013-10-13 13:38:00,
2013-10-13 09:43:00,78.6,68.8,30.01,NW,321,0.0,0.0,72,0.00,,OVC,0.00,WeatherDisplay:10.37,2013-10-13 13:43:00,
2013-10-13 09:48:00,78.8,69.0,30.01,NW,325,0.0,0.0,72,0.00,,OVC,0.00,WeatherDisplay:10.37,2013-10-13 13:48:00,
2013-10-13 09:53:00,79.4,69.6,30.01,NW,325,0.0,0.0,72,0.00,,OVC,0.00,WeatherDisplay:10.37,2013-10-13 13:53:00,
2013-10-13 09:58:00,80.1,69.4,30.01,WNW,296,0.0,0.0,70,0.00,,OVC,0.00,WeatherDisplay:10.37,2013-10-13 13:58:00,
2013-10-13 10:03:00,80.5,69.8,30.01,NW,311,0.0,0.0,70,0.00,CLR,OVC,0.00,WeatherDisplay:10.37,2013-10-13 14:03:00,
2013-10-13 10:08:00,80.9,70.2,30.01,NNW,329,0.0,0.0,70,0.00,CLR,OVC,0.00,WeatherDisplay:10.37,2013-10-13 14:08:00,
2013-10-13 10:13:00,81.2,68.8,30.01,NW,320,0.0,0.0,66,0.00,CLR,OVC,0.00,WeatherDisplay:10.37,2013-10-13 14:13:00,
2013-10-13 10:18:00,81.4,69.4,30.01,NNW,337,0.0,0.0,67,0.00,CLR,OVC,0.00,WeatherDisplay:10.37,2013-10-13 14:18:00,
2013-10-13 10:23:00,81.4,69.4,30.01,NNW,330,0.0,0.0,67,0.00,CLR,OVC,0.00,WeatherDisplay:10.37,2013-10-13 14:23:00,
2013-10-13 10:28:00,81.2,67.9,30.01,NNE,14,0.0,0.0,64,0.00,CLR,OVC,0.00,WeatherDisplay:10.37,2013-10-13 14:28:00,
2013-10-13 10:33:00,81.2,68.3,30.01,NNW,336,0.0,0.0,65,0.00,CLR,OVC,0.00,WeatherDisplay:10.37,2013-10-13 14:33:00,
2013-10-13 10:39:00,81.2,69.6,30.01,NNW,341,0.0,0.0,68,0.00,CLR,OVC,0.00,WeatherDisplay:10.37,2013-10-13 14:39:00,
2013-10-13 10:44:00,80.9,69.3,30.02,North,5,0.0,0.0,68,0.00,CLR,OVC,0.00,WeatherDisplay:10.37,2013-10-13 14:44:00,
2013-10-13 10:49:00,80.5,69.0,30.02,North,355,4.6,4.6,68,0.00,CLR,OVC,0.00,WeatherDisplay:10.37,2013-10-13 14:49:00,
2013-10-13 10:54:00,80.5,68.5,30.02,NW,304,12.7,12.7,67,0.00,CLR,OVC,0.00,WeatherDisplay:10.37,2013-10-13 14:54:00,
2013-10-13 10:59:00,80.9,68.0,30.01,NNW,340,8.0,8.0,65,0.00,CLR,OVC,0.00,WeatherDisplay:10.37,2013-10-13 14:59:00,
2013-10-13 11:04:00,81.2,67.9,30.01,NNW,342,12.0,12.0,64,0.00,CLR,OVC,0.00,WeatherDisplay:10.37,2013-10-13 15:04:00,
2013-10-13 11:09:00,80.9,67.6,30.01,NW,311,15.0,15.0,64,0.00,CLR,OVC,0.00,WeatherDisplay:10.37,2013-10-13 15:09:00,
2013-10-13 11:14:00,80.7,66.9,30.02,NNW,346,0.0,0.0,63,0.00,CLR,OVC,0.00,WeatherDisplay:10.37,2013-10-13 15:14:00,
2013-10-13 11:19:00,80.5,67.2,30.02,NNW,333,9.2,9.2,64,0.00,CLR,OVC,0.00,WeatherDisplay:10.37,2013-10-13 15:19:00,
2013-10-13 11:24:00,80.9,68.0,30.02,NNW,340,11.0,11.0,65,0.00,CLR,OVC,0.00,WeatherDisplay:10.37,2013-10-13 15:24:00,
2013-10-13 11:29:00,81.4,67.6,30.01,NW,320,0.0,0.0,63,0.00,CLR,OVC,0.00,WeatherDisplay:10.37,2013-10-13 15:29:00,
2013-10-13 11:34:00,82.0,67.7,30.01,NE,40,13.8,0.0,62,0.00,CLR,OVC,0.00,WeatherDisplay:10.37,2013-10-13 15:34:00,
2013-10-13 11:39:00,82.4,67.1,30.01,ENE,67,11.5,11.5,60,0.00,CLR,OVC,0.00,WeatherDisplay:10.37,2013-10-13 15:39:00,
2013-10-13 11:44:00,82.6,66.8,30.01,NW,321,0.0,1.8,59,0.00,CLR,OVC,0.00,WeatherDisplay:10.37,2013-10-13 15:44:00,
2013-10-13 11:49:00,82.4,66.1,30.01,North,355,21.9,21.9,58,0.00,CLR,OVC,0.00,WeatherDisplay:10.37,2013-10-13 15:49:00,
2013-10-13 11:54:00,82.2,66.0,30.01,ENE,63,13.0,13.0,58,0.00,CLR,OVC,0.00,WeatherDisplay:10.37,2013-10-13 15:54:00,
2013-10-13 11:59:00,82.0,65.3,30.01,NE,34,6.9,0.0,57,0.00,CLR,OVC,0.00,WeatherDisplay:10.37,2013-10-13 15:59:00,
2013-10-13 12:04:00,82.0,65.8,30.01,NNE,13,4.6,0.0,58,0.00,,OVC,0.00,WeatherDisplay:10.37,2013-10-13 16:04:00,
2013-10-13 12:09:00,82.4,66.1,30.01,NE,45,0.0,1.7,58,0.00,,OVC,0.00,WeatherDisplay:10.37,2013-10-13 16:09:00,
2013-10-13 12:14:00,82.0,66.3,30.01,NW,323,11.5,11.5,59,0.00,,OVC,0.00,WeatherDisplay:10.37,2013-10-13 16:14:00,
2013-10-13 12:19:00,81.8,65.1,30.01,NNE,26,9.2,9.2,57,0.00,,OVC,0.00,WeatherDisplay:10.37,2013-10-13 16:19:00,
2013-10-13 12:24:00,81.4,64.2,30.01,NNW,342,10.4,10.4,56,0.00,,OVC,0.00,WeatherDisplay:10.37,2013-10-13 16:24:00,
2013-10-13 12:29:00,81.4,63.7,30.01,NE,37,0.0,0.0,55,0.00,,OVC,0.00,WeatherDisplay:10.37,2013-10-13 16:29:00,
2013-10-13 12:34:00,81.4,63.7,30.01,NNW,327,8.1,8.1,55,0.00,,OVC,0.00,WeatherDisplay:10.37,2013-10-13 16:34:00,
2013-10-13 12:39:00,82.4,64.6,30.01,North,350,5.8,5.8,55,0.00,,OVC,0.00,WeatherDisplay:10.37,2013-10-13 16:39:00,
2013-10-13 12:44:00,82.6,63.7,30.00,NE,46,3.5,3.5,53,0.00,,OVC,0.00,WeatherDisplay:10.37,2013-10-13 16:44:00,
2013-10-13 12:49:00,82.6,63.7,30.00,ENE,63,12.7,12.7,53,0.00,,OVC,0.00,WeatherDisplay:10.37,2013-10-13 16:49:00,
2013-10-13 12:54:00,83.2,64.3,30.00,NE,34,1.2,1.9,53,0.00,,OVC,0.00,WeatherDisplay:10.37,2013-10-13 16:54:00,
2013-10-13 12:59:00,83.4,62.8,29.99,NNE,19,19.6,19.6,50,0.00,,OVC,0.00,WeatherDisplay:10.37,2013-10-13 16:59:00,
2013-10-13 13:04:00,83.0,64.1,29.99,North,5,0.0,2.2,53,0.00,,OVC,0.00,WeatherDisplay:10.37,2013-10-13 17:04:00,
2013-10-13 13:09:00,83.0,62.4,29.99,North,5,11.5,11.5,50,0.00,,OVC,0.00,WeatherDisplay:10.37,2013-10-13 17:09:00,
2013-10-13 13:14:00,82.8,62.8,29.99,NNE,32,12.7,12.7,51,0.00,,OVC,0.00,WeatherDisplay:10.37,2013-10-13 17:14:00,
2013-10-13 13:19:00,82.8,62.8,29.99,NNE,13,17.3,17.3,51,0.00,,OVC,0.00,WeatherDisplay:10.37,2013-10-13 17:19:00,
2013-10-13 13:24:00,82.8,62.8,29.99,NNE,30,0.0,0.0,51,0.00,,OVC,0.00,WeatherDisplay:10.37,2013-10-13 17:24:00,
2013-10-13 13:29:00,82.8,63.4,29.98,North,11,11.5,11.5,52,0.00,,OVC,0.00,WeatherDisplay:10.37,2013-10-13 17:29:00,
2013-10-13 13:34:00,82.8,63.9,29.98,NE,34,21.9,21.9,53,0.00,,OVC,0.00,WeatherDisplay:10.37,2013-10-13 17:34:00,
2013-10-13 13:39:00,82.4,63.5,29.98,NE,55,26.5,26.5,53,0.00,,OVC,0.00,WeatherDisplay:10.37,2013-10-13 17:39:00,
2013-10-13 13:44:00,82.6,64.3,29.98,NNW,338,18.4,18.4,54,0.00,,OVC,0.00,WeatherDisplay:10.37,2013-10-13 17:44:00,
2013-10-13 13:49:00,83.0,64.1,29.98,NNE,23,16.1,16.1,53,0.00,,OVC,0.00,WeatherDisplay:10.37,2013-10-13 17:49:00,
2013-10-13 13:54:00,83.2,63.2,29.98,NNW,335,26.5,26.5,51,0.00,,OVC,0.00,WeatherDisplay:10.37,2013-10-13 17:54:00,
2013-10-13 13:59:00,83.6,63.6,29.98,NW,308,8.1,8.1,51,0.00,,OVC,0.00,WeatherDisplay:10.37,2013-10-13 17:59:00,
2013-10-13 14:05:00,83.6,63.6,29.98,NE,39,13.8,13.8,51,0.00,,OVC,0.00,WeatherDisplay:10.37,2013-10-13 18:05:00,
2013-10-13 14:10:00,83.8,63.2,29.98,WNW,298,10.4,0.0,50,0.00,,OVC,0.00,WeatherDisplay:10.37,2013-10-13 18:10:00,
2013-10-13 14:15:00,83.6,63.6,29.97,ENE,71,10.4,10.4,51,0.00,,OVC,0.00,WeatherDisplay:10.37,2013-10-13 18:15:00,
2013-10-13 14:20:00,84.1,64.0,29.97,NNE,33,11.0,11.0,51,0.00,,OVC,0.00,WeatherDisplay:10.37,2013-10-13 18:20:00,
2013-10-13 14:25:00,84.0,62.8,29.97,NNE,16,11.5,0.0,49,0.00,,OVC,0.00,WeatherDisplay:10.37,2013-10-13 18:25:00,
2013-10-13 14:30:00,83.8,63.2,29.97,NNW,344,0.0,0.8,50,0.00,,OVC,0.00,WeatherDisplay:10.37,2013-10-13 18:30:00,
2013-10-13 14:35:00,83.6,63.6,29.97,NE,44,4.6,4.6,51,0.00,,OVC,0.00,WeatherDisplay:10.37,2013-10-13 18:35:00,
2013-10-13 14:40:00,83.4,62.8,29.97,NNW,333,10.4,10.4,50,0.00,,OVC,0.00,WeatherDisplay:10.37,2013-10-13 18:40:00,
2013-10-13 14:45:00,83.2,63.2,29.96,NE,46,18.4,18.4,51,0.00,,OVC,0.00,WeatherDisplay:10.37,2013-10-13 18:45:00,
2013-10-13 14:50:00,83.2,62.6,29.96,NE,55,15.0,15.0,50,0.00,,OVC,0.00,WeatherDisplay:10.37,2013-10-13 18:50:00,
2013-10-13 14:55:00,83.0,63.6,29.96,ENE,62,15.0,15.0,52,0.00,,OVC,0.00,WeatherDisplay:10.37,2013-10-13 18:55:00,
2013-10-13 15:00:00,83.2,62.6,29.96,NNE,25,15.0,15.0,50,0.00,,OVC,0.00,WeatherDisplay:10.37,2013-10-13 19:00:00,
2013-10-13 15:05:00,83.6,62.4,29.96,NE,45,9.2,9.2,49,0.00,,OVC,0.00,WeatherDisplay:10.37,2013-10-13 19:05:00,
2013-10-13 15:10:00,83.4,62.2,29.96,NNE,24,16.1,16.1,49,0.00,,OVC,0.00,WeatherDisplay:10.37,2013-10-13 19:10:00,
2013-10-13 15:15:00,83.0,63.0,29.95,NE,36,0.0,0.0,51,0.00,,OVC,0.00,WeatherDisplay:10.37,2013-10-13 19:15:00,
2013-10-13 15:20:00,82.8,62.8,29.95,East,86,0.0,1.7,51,0.00,,OVC,0.00,WeatherDisplay:10.37,2013-10-13 19:20:00,
2013-10-13 15:25:00,82.6,62.1,29.95,NE,51,16.1,16.1,50,0.00,,OVC,0.00,WeatherDisplay:10.37,2013-10-13 19:25:00,
2013-10-13 15:30:00,82.6,62.1,29.95,ENE,78,11.5,11.5,50,0.00,,OVC,0.00,WeatherDisplay:10.37,2013-10-13 19:30:00,
2013-10-13 15:35:00,82.8,62.3,29.95,NE,52,2.3,2.3,50,0.00,,OVC,0.00,WeatherDisplay:10.37,2013-10-13 19:35:00,
2013-10-13 15:40:00,82.8,61.7,29.95,NNE,26,16.1,16.1,49,0.00,,OVC,0.00,WeatherDisplay:10.37,2013-10-13 19:40:00,
2013-10-13 15:45:00,82.6,62.6,29.95,NNE,29,0.0,0.0,51,0.00,,OVC,0.00,WeatherDisplay:10.37,2013-10-13 19:45:00,
2013-10-13 15:50:00,82.4,61.9,29.95,NE,55,0.0,0.0,50,0.00,,OVC,0.00,WeatherDisplay:10.37,2013-10-13 19:50:00,
2013-10-13 15:55:00,82.6,62.1,29.95,ENE,61,0.0,0.0,50,0.00,,OVC,0.00,WeatherDisplay:10.37,2013-10-13 19:55:00,
2013-10-13 16:00:00,83.2,62.1,29.94,NE,42,11.5,11.5,49,0.00,,OVC,0.00,WeatherDisplay:10.37,2013-10-13 20:00:00,
2013-10-13 16:05:00,83.4,62.8,29.94,NNE,26,0.0,6.0,50,0.00,,OVC,0.00,WeatherDisplay:10.37,2013-10-13 20:05:00,
2013-10-13 16:10:00,83.6,62.4,29.94,NNW,346,15.0,15.0,49,0.00,,OVC,0.00,WeatherDisplay:10.37,2013-10-13 20:10:00,
2013-10-13 16:15:00,83.2,62.6,29.94,NE,34,6.9,6.9,50,0.00,,OVC,0.00,WeatherDisplay:10.37,2013-10-13 20:15:00,
2013-10-13 16:20:00,82.8,63.9,29.94,North,355,0.0,0.0,53,0.00,,OVC,0.00,WeatherDisplay:10.37,2013-10-13 20:20:00,
2013-10-13 16:25:00,82.4,63.5,29.94,NNW,331,17.3,17.3,53,0.00,,OVC,0.00,WeatherDisplay:10.37,2013-10-13 20:25:00,
2013-10-13 16:30:00,82.8,63.9,29.93,NE,36,0.0,0.0,53,0.00,,OVC,0.00,WeatherDisplay:10.37,2013-10-13 20:30:00,
2013-10-13 16:35:00,83.2,62.6,29.93,NNE,26,18.4,18.4,50,0.00,,OVC,0.00,WeatherDisplay:10.37,2013-10-13 20:35:00,
2013-10-13 16:40:00,83.4,63.4,29.93,NNE,15,15.0,15.0,51,0.00,,OVC,0.00,WeatherDisplay:10.37,2013-10-13 20:40:00,
2013-10-13 16:45:00,83.2,63.7,29.93,NE,37,15.0,15.0,52,0.00,,OVC,0.00,WeatherDisplay:10.37,2013-10-13 20:45:00,
2013-10-13 16:50:00,83.4,64.5,29.93,ENE,66,17.3,17.3,53,0.00,,OVC,0.00,WeatherDisplay:10.37,2013-10-13 20:50:00,
2013-10-13 16:55:00,83.2,64.3,29.93,NE,51,12.7,12.7,53,0.00,,OVC,0.00,WeatherDisplay:10.37,2013-10-13 20:55:00,
2013-10-13 17:00:00,83.0,64.1,29.93,ENE,65,17.3,17.3,53,0.00,,OVC,0.00,WeatherDisplay:10.37,2013-10-13 21:00:00,
2013-10-13 17:05:00,82.6,63.7,29.93,NE,45,18.4,18.4,53,0.00,,OVC,0.00,WeatherDisplay:10.37,2013-10-13 21:05:00,
2013-10-13 17:10:00,82.2,63.4,29.93,North,355,15.0,15.0,53,0.00,,OVC,0.00,WeatherDisplay:10.37,2013-10-13 21:10:00,
2013-10-13 17:15:00,82.0,63.7,29.93,ENE,61,17.3,17.3,54,0.00,,OVC,0.00,WeatherDisplay:10.37,2013-10-13 21:15:00,
2013-10-13 17:20:00,82.0,63.2,29.93,NE,55,16.1,16.1,53,0.00,,OVC,0.00,WeatherDisplay:10.37,2013-10-13 21:20:00,
2013-10-13 17:25:00,82.2,63.4,29.93,ENE,66,19.6,19.6,53,0.00,,OVC,0.00,WeatherDisplay:10.37,2013-10-13 21:25:00,
2013-10-13 17:30:00,82.2,63.4,29.93,NNE,14,19.6,19.6,53,0.00,,OVC,0.00,WeatherDisplay:10.37,2013-10-13 21:30:00,
2013-10-13 17:35:00,81.8,63.5,29.93,NE,37,13.0,13.0,54,0.00,,OVC,0.00,WeatherDisplay:10.37,2013-10-13 21:35:00,
2013-10-13 17:40:00,81.8,63.0,29.93,North,360,15.0,15.0,53,0.00,,OVC,0.00,WeatherDisplay:10.37,2013-10-13 21:40:00,
2013-10-13 17:45:00,81.6,62.8,29.93,ENE,63,20.7,20.7,53,0.00,,OVC,0.00,WeatherDisplay:10.37,2013-10-13 21:45:00,
2013-10-13 17:50:00,81.4,63.2,29.93,NNE,30,19.6,19.6,54,0.00,,OVC,0.00,WeatherDisplay:10.37,2013-10-13 21:50:00,
2013-10-13 17:55:00,81.1,62.9,29.93,North,5,15.0,15.0,54,0.00,,OVC,0.00,WeatherDisplay:10.37,2013-10-13 21:55:00,
2013-10-13 18:00:00,80.9,62.7,29.94,NNE,32,16.1,16.1,54,0.00,,OVC,0.00,WeatherDisplay:10.37,2013-10-13 22:00:00,
2013-10-13 18:05:00,80.7,62.0,29.94,NE,54,0.0,1.0,53,0.00,,OVC,0.00,WeatherDisplay:10.37,2013-10-13 22:05:00,
2013-10-13 18:10:00,80.7,62.0,29.94,NE,42,19.6,19.6,53,0.00,,OVC,0.00,WeatherDisplay:10.37,2013-10-13 22:10:00,
2013-10-13 18:15:00,80.7,62.0,29.94,NNE,19,20.7,20.7,53,0.00,,OVC,0.00,WeatherDisplay:10.37,2013-10-13 22:15:00,
2013-10-13 18:20:00,80.5,61.8,29.94,NNE,13,13.0,13.0,53,0.00,,OVC,0.00,WeatherDisplay:10.37,2013-10-13 22:20:00,
2013-10-13 18:25:00,80.5,61.8,29.94,NE,40,20.7,20.7,53,0.00,,OVC,0.00,WeatherDisplay:10.37,2013-10-13 22:25:00,
2013-10-13 18:30:00,80.3,62.1,29.95,NE,36,15.0,15.0,54,0.00,,OVC,0.00,WeatherDisplay:10.37,2013-10-13 22:30:00,
2013-10-13 18:35:00,79.9,61.8,29.95,ENE,64,20.0,20.0,54,0.00,,OVC,0.00,WeatherDisplay:10.37,2013-10-13 22:35:00,
2013-10-13 18:40:00,79.9,61.8,29.95,NE,40,5.8,5.8,54,0.00,,OVC,0.00,WeatherDisplay:10.37,2013-10-13 22:40:00,
2013-10-13 18:45:00,79.8,61.7,29.95,NE,45,16.1,16.1,54,0.00,,OVC,0.00,WeatherDisplay:10.37,2013-10-13 22:45:00,
2013-10-13 18:50:00,79.8,61.7,29.95,NNE,19,12.7,12.7,54,0.00,,OVC,0.00,WeatherDisplay:10.37,2013-10-13 22:50:00,
2013-10-13 18:55:00,79.4,61.8,29.95,North,5,11.5,11.5,55,0.00,,OVC,0.00,WeatherDisplay:10.37,2013-10-13 22:55:00,
2013-10-13 19:00:00,79.2,61.6,29.95,NE,38,11.5,11.5,55,0.00,,OVC,0.00,WeatherDisplay:10.37,2013-10-13 23:00:00,
2013-10-13 19:05:00,79.0,62.0,29.95,NNE,28,6.0,6.0,56,0.00,,OVC,0.00,WeatherDisplay:10.37,2013-10-13 23:05:00,
2013-10-13 19:10:00,78.8,61.8,29.95,North,9,3.5,0.0,56,0.00,,OVC,0.00,WeatherDisplay:10.37,2013-10-13 23:10:00,
2013-10-13 19:15:00,78.6,61.6,29.95,NE,51,4.0,4.0,56,0.00,,OVC,0.00,WeatherDisplay:10.37,2013-10-13 23:15:00,
2013-10-13 19:20:00,78.6,62.1,29.95,NNE,24,6.9,6.9,57,0.00,,OVC,0.00,WeatherDisplay:10.37,2013-10-13 23:20:00,
2013-10-13 19:25:00,78.5,62.0,29.95,NE,46,0.0,0.0,57,0.00,,OVC,0.00,WeatherDisplay:10.37,2013-10-13 23:25:00,
2013-10-13 19:31:00,78.3,62.3,29.95,NE,44,0.0,0.0,58,0.00,,OVC,0.00,WeatherDisplay:10.37,2013-10-13 23:31:00,
2013-10-13 19:36:00,78.1,62.1,29.95,NNE,32,8.1,8.1,58,0.00,,OVC,0.00,WeatherDisplay:10.37,2013-10-13 23:36:00,
2013-10-13 19:41:00,78.1,62.6,29.95,NE,40,0.0,0.0,59,0.00,,OVC,0.00,WeatherDisplay:10.37,2013-10-13 23:41:00,
2013-10-13 19:46:00,77.9,62.4,29.95,NNE,15,4.6,4.6,59,0.00,,OVC,0.00,WeatherDisplay:10.37,2013-10-13 23:46:00,
2013-10-13 19:51:00,77.7,62.7,29.95,North,5,4.6,4.6,60,0.00,,OVC,0.00,WeatherDisplay:10.37,2013-10-13 23:51:00,
2013-10-13 19:56:00,77.6,62.6,29.95,North,11,0.0,0.0,60,0.00,,OVC,0.00,WeatherDisplay:10.37,2013-10-13 23:56:00,
2013-10-13 20:01:00,77.4,62.4,29.95,NNE,16,0.0,0.0,60,0.00,,OVC,0.00,WeatherDisplay:10.37,2013-10-14 00:01:00,
2013-10-13 20:06:00,77.4,62.9,29.95,North,5,6.9,6.9,61,0.00,,OVC,0.00,WeatherDisplay:10.37,2013-10-14 00:06:00,
2013-10-13 20:11:00,77.4,62.9,29.95,North,5,0.0,0.0,61,0.00,,OVC,0.00,WeatherDisplay:10.37,2013-10-14 00:11:00,
2013-10-13 20:16:00,77.2,62.7,29.96,North,5,0.0,0.0,61,0.00,,OVC,0.00,WeatherDisplay:10.37,2013-10-14 00:16:00,
2013-10-13 20:21:00,77.0,63.0,29.96,North,5,0.0,0.0,62,0.00,,OVC,0.00,WeatherDisplay:10.37,2013-10-14 00:21:00,
2013-10-13 20:26:00,76.8,62.8,29.96,North,5,0.0,0.0,62,0.00,,OVC,0.00,WeatherDisplay:10.37,2013-10-14 00:26:00,
2013-10-13 20:31:00,76.8,63.2,29.96,North,5,0.0,0.0,63,0.00,,OVC,0.00,WeatherDisplay:10.37,2013-10-14 00:31:00,
2013-10-13 20:36:00,76.7,63.2,29.96,North,5,0.0,0.0,63,0.00,,OVC,0.00,WeatherDisplay:10.37,2013-10-14 00:36:00,
2013-10-13 20:41:00,76.5,63.4,29.96,North,5,0.0,0.0,64,0.00,,OVC,0.00,WeatherDisplay:10.37,2013-10-14 00:41:00,
2013-10-13 20:46:00,76.3,63.2,29.97,North,5,0.0,0.0,64,0.00,,OVC,0.00,WeatherDisplay:10.37,2013-10-14 00:46:00,
2013-10-13 20:51:00,76.3,63.2,29.97,North,5,0.0,0.0,64,0.00,,OVC,0.00,WeatherDisplay:10.37,2013-10-14 00:51:00,
2013-10-13 20:56:00,76.3,63.2,29.97,North,5,0.0,0.0,64,0.00,,OVC,0.00,WeatherDisplay:10.37,2013-10-14 00:56:00,
2013-10-13 21:01:00,76.1,63.5,29.97,North,5,0.0,0.0,65,0.00,,OVC,0.00,WeatherDisplay:10.37,2013-10-14 01:01:00,
2013-10-13 21:06:00,76.0,63.4,29.97,North,5,0.0,0.0,65,0.00,,OVC,0.00,WeatherDisplay:10.37,2013-10-14 01:06:00,
2013-10-13 21:11:00,75.8,63.2,29.97,North,5,0.0,0.0,65,0.00,,OVC,0.00,WeatherDisplay:10.37,2013-10-14 01:11:00,
2013-10-13 21:16:00,75.6,63.4,29.98,North,5,0.0,0.0,66,0.00,,OVC,0.00,WeatherDisplay:10.37,2013-10-14 01:16:00,
2013-10-13 21:21:00,75.4,63.2,29.98,North,5,0.0,0.0,66,0.00,,OVC,0.00,WeatherDisplay:10.37,2013-10-14 01:21:00,
2013-10-13 21:26:00,75.3,64.0,29.98,North,5,0.0,0.0,68,0.00,,OVC,0.00,WeatherDisplay:10.37,2013-10-14 01:26:00,
2013-10-13 21:31:00,74.9,63.6,29.98,North,5,0.0,0.0,68,0.00,,OVC,0.00,WeatherDisplay:10.37,2013-10-14 01:31:00,
2013-10-13 21:36:00,74.6,63.8,29.98,North,5,0.0,0.0,69,0.00,,OVC,0.00,WeatherDisplay:10.37,2013-10-14 01:36:00,
2013-10-13 21:41:00,74.4,64.0,29.98,North,5,0.0,0.0,70,0.00,,OVC,0.00,WeatherDisplay:10.37,2013-10-14 01:41:00,
2013-10-13 21:46:00,74.0,63.6,29.98,North,5,0.0,0.0,70,0.00,,OVC,0.00,WeatherDisplay:10.37,2013-10-14 01:46:00,
2013-10-13 21:51:00,73.7,63.7,29.98,North,5,0.0,0.0,71,0.00,,OVC,0.00,WeatherDisplay:10.37,2013-10-14 01:51:00,
2013-10-13 21:56:00,73.5,63.5,29.98,North,5,0.0,0.0,71,0.00,,OVC,0.00,WeatherDisplay:10.37,2013-10-14 01:56:00,
2013-10-13 22:01:00,73.2,63.6,29.98,North,5,0.0,0.0,72,0.00,,OVC,0.00,WeatherDisplay:10.37,2013-10-14 02:01:00,
2013-10-13 22:06:00,73.2,64.0,29.98,North,5,0.0,0.0,73,0.00,,OVC,0.00,WeatherDisplay:10.37,2013-10-14 02:06:00,
2013-10-13 22:11:00,73.0,63.8,29.98,North,5,0.0,0.0,73,0.00,,OVC,0.00,WeatherDisplay:10.37,2013-10-14 02:11:00,
2013-10-13 22:16:00,73.0,64.6,29.98,North,5,0.0,0.0,75,0.00,,OVC,0.00,WeatherDisplay:10.37,2013-10-14 02:16:00,
2013-10-13 22:21:00,73.0,64.6,29.98,North,5,0.0,0.0,75,0.00,,OVC,0.00,WeatherDisplay:10.37,2013-10-14 02:21:00,
2013-10-13 22:26:00,73.0,64.6,29.98,North,5,0.0,0.0,75,0.00,,OVC,0.00,WeatherDisplay:10.37,2013-10-14 02:26:00,
2013-10-13 22:31:00,73.0,65.0,29.98,North,5,0.0,0.0,76,0.00,,OVC,0.00,WeatherDisplay:10.37,2013-10-14 02:31:00,
2013-10-13 22:36:00,72.8,64.8,29.98,North,5,0.0,0.0,76,0.00,,OVC,0.00,WeatherDisplay:10.37,2013-10-14 02:36:00,
2013-10-13 22:41:00,72.8,64.8,29.98,North,5,0.0,0.0,76,0.00,,OVC,0.00,WeatherDisplay:10.37,2013-10-14 02:41:00,
2013-10-13 22:46:00,72.8,64.8,29.98,North,5,0.0,0.0,76,0.00,,OVC,0.00,WeatherDisplay:10.37,2013-10-14 02:46:00,
2013-10-13 22:51:00,72.8,65.2,29.98,North,5,0.0,0.0,77,0.00,,OVC,0.00,WeatherDisplay:10.37,2013-10-14 02:51:00,
2013-10-13 22:56:00,72.8,65.2,29.98,North,5,0.0,0.0,77,0.00,,OVC,0.00,WeatherDisplay:10.37,2013-10-14 02:56:00,
2013-10-13 23:01:00,72.7,65.1,29.98,North,5,0.0,0.0,77,0.00,,OVC,0.00,WeatherDisplay:10.37,2013-10-14 03:01:00,
2013-10-13 23:06:00,72.7,65.1,29.98,North,5,0.0,0.0,77,0.00,,OVC,0.00,WeatherDisplay:10.37,2013-10-14 03:06:00,
2013-10-13 23:11:00,72.7,65.4,29.98,North,5,0.0,0.0,78,0.00,,OVC,0.00,WeatherDisplay:10.37,2013-10-14 03:11:00,
2013-10-13 23:16:00,72.7,65.4,29.98,North,5,0.0,0.0,78,0.00,,OVC,0.00,WeatherDisplay:10.37,2013-10-14 03:16:00,
2013-10-13 23:21:00,72.5,65.2,29.98,North,5,0.0,0.0,78,0.00,,OVC,0.00,WeatherDisplay:10.37,2013-10-14 03:21:00,
2013-10-13 23:26:00,72.3,65.1,29.98,NNW,336,0.0,0.0,78,0.00,,OVC,0.00,WeatherDisplay:10.37,2013-10-14 03:26:00,
2013-10-13 23:31:00,72.3,65.1,29.98,NNW,336,0.0,0.0,78,0.00,,OVC,0.00,WeatherDisplay:10.37,2013-10-14 03:31:00,
2013-10-13 23:36:00,72.3,64.7,29.98,NNW,336,0.0,0.0,77,0.00,,OVC,0.00,WeatherDisplay:10.37,2013-10-14 03:36:00,
2013-10-13 23:41:00,72.3,64.7,29.98,NNW,336,0.0,0.0,77,0.00,,OVC,0.00,WeatherDisplay:10.37,2013-10-14 03:41:00,
2013-10-13 23:46:00,72.0,64.8,29.98,NNW,336,0.0,0.0,78,0.00,,OVC,0.00,WeatherDisplay:10.37,2013-10-14 03:46:00,
2013-10-13 23:51:00,71.8,64.9,29.98,NNW,336,0.0,0.0,79,0.00,,OVC,0.00,WeatherDisplay:10.37,2013-10-14 03:51:00,
2013-10-13 23:56:00,71.8,64.9,29.98,NNW,336,0.0,0.0,79,0.00,,OVC,0.00,WeatherDisplay:10.37,2013-10-14 03:56:00,